Home   Weather   Thessaloniki   Past weeks

Flag for Greece Past Weather in Thessaloniki, Greece — Yesterday and Last 2 Weeks

Now
41 °F

Drizzle. More clouds than sun.


Feels Like: 36 °F
Forecast: 24 / 38 °F
Wind: 7 mph from Northwest

Location: Thessaloniki Airport

Current Time: Jan 19, 2017 at 8:53:23 am

Latest Report: Jan 19, 2017 at 7:50 am


Visibility: 5 mi

Pressure: 30.27 "Hg

Humidity: 81%

Dew Point: 36 °F

Location of ThessalonikiLocation

Past Weather in Thessaloniki — Graph

°F

Thessaloniki Temperature Yesterday

Maximum temperature yesterday: 46 °F (at 11:20 am)
Minimum temperature yesterday: 43 °F (at 12:20 am)
Average temperature yesterday: 44 °F

High & Low Weather Summary for the Past Weeks

 TemperatureHumidityPressure
High52 °F (Jan 4, 3:20 pm)100% (Jan 5, 7:20 am)30.27 "Hg (Jan 5, 7:20 am)
Low14 °F (Jan 11, 1:50 am)28% (Jan 7, 3:20 pm)29.47 "Hg (Jan 5, 8:50 pm)
Average33 °F75%29.96 "Hg
* Reported Jan 4 7:20 am — Jan 19 7:20 am, Thessaloniki, Weather by CustomWeather, © 2017

Note: Actual official high and low records may vary slightly from our data, if they occured in-between our weather recording intervals... More about our weather records

Advertising

Thessaloniki Weather History for the Previous 24 Hours

Scroll right to see more
 ConditionsComfort  
Time TempWeatherWind HumidityBarometerVisibility
7:20 am
Thu, Jan 19
41 °FLight rain. Mostly cloudy.9 mph81%30.27 "Hg5 mi
6:50 am41 °FLight rain. Mostly cloudy.14 mph81%30.24 "Hg5 mi
6:20 am41 °FDrizzle. Mostly cloudy.16 mph81%30.24 "HgN/A
5:50 am41 °FDrizzle. Mostly cloudy.5 mph81%30.21 "HgN/A
5:20 am41 °FDrizzle. Mostly cloudy.3 mph87%30.21 "HgN/A
4:50 am41 °FLight rain. Passing clouds.6 mph87%30.21 "Hg5 mi
4:20 am39 °FRain. Partly cloudy.12 mph100%30.21 "Hg5 mi
3:50 am37 °FLight rain. Partly cloudy.14 mph100%30.21 "Hg5 mi
3:20 am37 °FHeavy rain. Partly cloudy.6 mph93%30.21 "Hg4 mi
2:50 am37 °FHeavy rain. Partly cloudy.8 mph93%30.21 "Hg4 mi
2:20 am37 °FHeavy rain. Partly cloudy.16 mph100%30.21 "Hg4 mi
1:50 am39 °FRain. Partly cloudy.21 mph93%30.18 "Hg4 mi
1:20 am43 °FRain. Partly cloudy.9 mph81%30.15 "Hg5 mi
12:50 am43 °FRain. Partly cloudy.8 mph81%30.15 "Hg5 mi
11:50 pm
Wed, Jan 18
43 °FLight rain. Partly cloudy.8 mph87%30.15 "HgN/A
11:20 pm43 °FRain. Partly cloudy.8 mph93%30.18 "Hg5 mi
10:50 pm43 °FLight rain. Partly cloudy.9 mph93%30.18 "Hg5 mi
10:20 pm43 °FPartly cloudy.12 mph93%30.15 "HgN/A
9:50 pm43 °FPassing clouds.13 mph87%30.15 "HgN/A
9:20 pm45 °FPassing clouds.9 mph76%30.15 "HgN/A
8:20 pm43 °FPassing clouds.7 mph93%30.15 "HgN/A
7:50 pm43 °FPassing clouds.6 mph93%30.15 "HgN/A
7:20 pm43 °FPassing clouds.5 mph93%30.18 "HgN/A
6:50 pm43 °FLight rain. Passing clouds.9 mph93%30.15 "Hg5 mi
6:20 pm43 °FRain. Passing clouds.6 mph93%30.18 "Hg4 mi
5:50 pm45 °FRain. Passing clouds.3 mph87%30.15 "Hg4 mi
5:20 pm45 °FLight rain. Partly sunny.3 mph87%30.15 "Hg4 mi
4:50 pm45 °FRain. Partly sunny.5 mph87%30.15 "Hg4 mi
4:20 pm45 °FRain. Partly sunny.3 mph87%30.15 "Hg4 mi
3:50 pm45 °FLight rain. Partly sunny.5 mph87%30.15 "Hg4 mi
3:20 pm45 °FLight rain. Partly sunny.12 mph87%30.15 "Hg4 mi
2:50 pm45 °FLight rain. Partly sunny.10 mph87%30.15 "Hg4 mi
2:20 pm45 °FLight rain. Partly sunny.8 mph93%30.12 "Hg4 mi
1:50 pm45 °FRain. Partly sunny.7 mph93%30.12 "Hg4 mi
1:20 pm45 °FRain. Partly sunny.2 mph87%30.15 "Hg4 mi
12:20 pm46 °FLight rain. Partly sunny.7 mph87%30.15 "HgN/A
11:50 am46 °FDrizzle. Partly sunny.7 mph87%30.15 "HgN/A
11:20 am46 °FLight rain. Partly sunny.3 mph82%30.15 "HgN/A
10:50 am45 °FDrizzle. Partly sunny.6 mph87%30.15 "HgN/A
10:20 am45 °FPartly sunny.3 mph93%30.15 "HgN/A
9:50 am45 °FPartly sunny.3 mph87%30.12 "HgN/A
9:20 am43 °FPartly sunny.5 mph93%30.12 "HgN/A
8:50 am43 °FPartly sunny.2 mph93%30.09 "HgN/A
8:20 am43 °FDrizzle. Partly sunny.5 mph93%30.09 "HgN/A
Weather by CustomWeather, © 2017

See weather overviewHow to use our weather pages